Lexington Weather

Lexington, Massachusetts, USA

34°F
4/16/2021 10:55am 
  • Lexington Conditions: Snow, Fog, Overcast
  • Temperature: 34.0°F / 1.1°CWarmer 0.2°F than last hour.
  • Dew Point: 32.7°FIncreased 0.2°Fsince last hour.
  • Relative Humidity: 95
  • Wind: Wind from N N 2 mph, 10-min avg: 2 mph, gust: 4 mph
  • Barometer: 29.47 inFalling 0.03  inHg/hr Falling Slowly
  • Visibility: ½ mile
  • Snow Today: 1.3 in
  •   

Regional Weather Roundup
for Boston / Norton, MA

        
000
ASUS41 KBOX 100505
RWRBOX

REGIONAL WEATHER ROUNDUP
NATIONAL WEATHER SERVICE BOSTON/NORTON MA
100 AM EDT SAT APR 10 2021

NOTE:  "FAIR" INDICATES FEW OR NO CLOUDS BELOW 12,000 FEET WITH NO 
SIGNIFICANT WEATHER AND/OR OBSTRUCTIONS TO VISIBILITY.

MAZALL-100600-
EASTERN MASSACHUSETTS
  
CITY           SKY/WX    TMP DP  RH WIND       PRES   REMARKS
BOSTON         PTCLDY    50  42  74 SW10      30.08F                  
BEVERLY        NOT AVBL                                               
LAWRENCE       PTCLDY    50  42  74 SW7       30.07F                  
BEDFORD        PTCLDY    49  42  77 SW7       30.06F                  
BLUE HILL        N/A     43  42  97 SW14      30.06F                  
NORWOOD        PTCLDY    45  40  82 SE3       30.09F                  
MARSHFIELD     CLEAR     45  45 100 SW6G13    30.08F                  
PLYMOUTH       CLOUDY    43  41  93 SW8       30.10F                  
TAUNTON        CLOUDY    44  42  93 S3        30.10F                  
NEW BEDFORD    CLOUDY    43  42  97 SW5       30.11F FOG              
$$

MAZALL-100600-
CAPE COD AND THE ISLANDS
  
CITY           SKY/WX    TMP DP  RH WIND       PRES   REMARKS
FALMOUTH       FOG       41  41 100 W9        30.11F VSB 1/2          
HYANNIS        CLEAR     43  41  93 SW6       30.09F                  
CHATHAM        FOG       43  41  93 SW7       30.11F VSB 3/4          
PROVINCETOWN   PTCLDY    42  42 100 S12       30.10F                  
NANTUCKET      FOG       40  40 100 W8        30.12F VSB 1/2          
MARTHAS VNYRD  FOG       42  42 100 SW5       30.12F VSB 1/2          
$$
 
MAZALL-100600-
CENTRAL AND WESTERN MASSACHUSETTS
  
CITY           SKY/WX    TMP DP  RH WIND       PRES   REMARKS
WORCESTER      CLOUDY    53  41  63 W12       30.07F                  
FITCHBURG      MOCLDY    49  43  80 CALM      30.06F                  
ORANGE         CLOUDY    54  44  69 S6        30.08S                  
SPRINGFIELD    CLOUDY    53  44  71 S5        30.06F                  
WESTFIELD      CLOUDY    53  45  74 S5        30.07S                  
NORTH ADAMS    CLOUDY    58  42  55 CALM      30.05F                  
PITTSFIELD     CLOUDY    54  42  64 S5        30.05F                  
$$
 
RIZALL-100600-
RHODE ISLAND
  
CITY           SKY/WX    TMP DP  RH WIND       PRES   REMARKS
PROVIDENCE     PTCLDY    44  42  93 S6        30.12S                  
NEWPORT        FOG       42  42 100 SW3       30.12S VSB 1/4          
BLOCK ISLAND   CLOUDY    43  42  97 SW8       30.13F FOG              
SMITHFIELD     MOCLDY    44  44 100 CALM      30.10S                  
WESTERLY       CLOUDY    42  42 100 S3        30.12F FOG              
$$
 
CTZALL-100600-
CONNECTICUT
  
CITY           SKY/WX    TMP DP  RH WIND       PRES   REMARKS
BRADLEY INTL   CLOUDY    53  44  71 S6        30.08S                  
HARTFORD       CLOUDY    52  44  74 S5        30.10S                  
BRIDGEPORT     CLOUDY    48  45  89 SW7       30.12S                  
DANBURY        CLOUDY    52  43  71 CALM      30.12R                  
GROTON         CLOUDY    45  44  97 SW8       30.11F                  
NEW HAVEN      CLOUDY    49  46  90 S6        30.12S                  
CHESTER        MOCLDY    46  45  93 VRB5      30.10F                  
MERIDEN        MOCLDY    49  43  80 S8        30.11S                  
WILLIMANTIC    CLOUDY    50  43  77 SE3       30.10F                  
OXFORD         CLOUDY    48  47  96 VRB5      30.11R                  
$$

MEZ002-015-021-024-NHZ003-005-008-011-012-014-VTZ005-008-100600-
NORTHERN NEW ENGLAND
  
CITY           SKY/WX    TMP DP  RH WIND       PRES   REMARKS
PORTLAND ME    CLEAR     44  42  93 CALM      30.06F                  
BANGOR ME      MOCLDY    48  42  80 S3        30.06F                  
CONCORD NH     PTCLDY    48  41  76 CALM      30.05F                  
MANCHESTER NH  MOCLDY    52  42  69 CALM      30.04F                  
NASHUA NH      PTCLDY    48  46  93 CALM      30.06F                  
PORTSMOUTH NH  PTCLDY    45  43  91 CALM      30.06F                  
JAFFREY NH     CLOUDY    52  43  71 S6        30.07S                  
KEENE NH       CLOUDY    53  44  71 S3        30.06F                  
BURLINGTON VT  MOCLDY    64  40  41 S10       29.98F                  
MT. WASHINGTON PTCLDY    41  34  75 W3          N/A                   
$$

NYZ052-076-100600-
EASTERN NEW YORK
  
CITY           SKY/WX    TMP DP  RH WIND       PRES   REMARKS
ALBANY         MOCLDY    55  43  63 S13       30.05S                  
NEW YORK CITY  CLOUDY    50  44  80 S8        30.11F                  
$$
 
ANZALL-100600-
MARINE OBSERVATIONS
  
STATION/POSITION TIME  TEMP    WIND        PRES    VSBY  WAVE
                       AIR SEA DIR/SP/G                  HT/PER
                 (UTC) (F)     (DEG/KT/KT) (MB)    (MI)  (FT/S)
BOSTON BUOY      0450   46 45  200/  8/ 10 1018.7F         4/ 9
BUZZARDS BAY     0400          220/  9/ 11 1021.4F
NANTUCKET SOUND  0450      47                N/A           1/ 9
MASS BAY-STELLWA 0404   46     210/ 12/ 14 1017.3F  1 7/8  4/11
ISLE OF SHOALS   0400   49     210/ 15/ 15 1017.6F
S OF BLOCK IS    0456      46                N/A           3/11
$$

......................KEY.........................
  SKY/WX - SKY CONDITION/PRESENT WEATHER
  TMP    - TEMPERATURE IN FAHRENHEIT
  DWPT   - DEWPOINT IN FAHRENHEIT
  RH     - RELATIVE HUMIDITY IN PERCENT
  WIND   - DIRECTION AND SPEED IN MPH
  PRES   - MEAN SEA LEVEL PRESSURE IN INCHES OF HG
  WCI    - WIND CHILL INDEX
  VSB    - VISIBILITY IN MILES
  HX     - HEAT INDEX
  TC     - TEMPERATURE IN CELSIUS
  VRB    - VARIABLE WIND DIRECTION
  N/A    - NOT AVAILABLE
  
      

Other recent Regional Weather Roundups

Fri Apr 16, 10:05am

Fri Apr 16, 9:04am

Fri Apr 16, 8:04am

Fri Apr 16, 7:04am

Fri Apr 16, 6:04am

Fri Apr 16, 5:04am

Fri Apr 16, 4:04am

Fri Apr 16, 3:04am

Fri Apr 16, 2:04am

Fri Apr 16, 1:04am

Fri Apr 16, 12:04am

Thu Apr 15, 11:05pm

Thu Apr 15, 10:04pm

Thu Apr 15, 9:04pm

Thu Apr 15, 8:04pm

Thu Apr 15, 7:05pm

Thu Apr 15, 6:04pm

Thu Apr 15, 5:05pm

Thu Apr 15, 4:04pm

Thu Apr 15, 3:05pm

Thu Apr 15, 2:04pm

Thu Apr 15, 1:05pm

Thu Apr 15, 12:04pm

Thu Apr 15, 11:04am

Thu Apr 15, 10:05am

Thu Apr 15, 9:04am

Thu Apr 15, 8:04am

Thu Apr 15, 7:04am

Thu Apr 15, 6:04am

Thu Apr 15, 5:04am

Thu Apr 15, 4:04am

Thu Apr 15, 3:04am

Thu Apr 15, 2:04am

Thu Apr 15, 1:04am

Thu Apr 15, 12:04am

Wed Apr 14, 11:04pm

Wed Apr 14, 10:04pm

Wed Apr 14, 9:04pm

Wed Apr 14, 8:04pm

Wed Apr 14, 7:04pm

Wed Apr 14, 6:04pm

Wed Apr 14, 5:05pm

Wed Apr 14, 4:04pm

Wed Apr 14, 3:05pm

Wed Apr 14, 2:04pm

Wed Apr 14, 1:05pm

Wed Apr 14, 12:04pm

Wed Apr 14, 11:04am

Wed Apr 14, 10:04am

Wed Apr 14, 9:04am

Wed Apr 14, 8:04am

Wed Apr 14, 7:04am

Wed Apr 14, 6:04am

Wed Apr 14, 5:04am

Wed Apr 14, 4:04am

Wed Apr 14, 3:04am

Wed Apr 14, 2:04am

Wed Apr 14, 1:04am

Wed Apr 14, 12:04am

Tue Apr 13, 11:04pm

Tue Apr 13, 10:05pm

Tue Apr 13, 9:05pm

Tue Apr 13, 8:05pm

Tue Apr 13, 7:04pm

Tue Apr 13, 6:04pm

Tue Apr 13, 5:05pm

Tue Apr 13, 4:04pm

Tue Apr 13, 3:04pm

Tue Apr 13, 2:05pm

Tue Apr 13, 1:04pm

Tue Apr 13, 12:05pm

Tue Apr 13, 11:05am

Tue Apr 13, 10:04am

Tue Apr 13, 9:04am

Tue Apr 13, 8:04am

Tue Apr 13, 7:04am

Tue Apr 13, 6:04am

Tue Apr 13, 5:04am

Tue Apr 13, 4:04am

Tue Apr 13, 3:04am

Tue Apr 13, 2:04am

Tue Apr 13, 1:04am

Tue Apr 13, 12:05am

Mon Apr 12, 11:04pm

Mon Apr 12, 10:04pm

Mon Apr 12, 9:04pm

Mon Apr 12, 8:04pm

Mon Apr 12, 7:05pm

Mon Apr 12, 6:04pm

Mon Apr 12, 5:04pm

Mon Apr 12, 4:04pm

Mon Apr 12, 3:05pm

Mon Apr 12, 2:04pm

Mon Apr 12, 1:05pm

Mon Apr 12, 12:04pm

Mon Apr 12, 11:04am

Mon Apr 12, 10:04am

Mon Apr 12, 9:04am

Mon Apr 12, 8:04am

Mon Apr 12, 7:04am

Mon Apr 12, 6:04am

Mon Apr 12, 5:04am

Mon Apr 12, 4:04am

Mon Apr 12, 3:04am

Mon Apr 12, 2:04am

Mon Apr 12, 1:05am

Mon Apr 12, 12:04am

Sun Apr 11, 11:04pm

Sun Apr 11, 10:04pm

Sun Apr 11, 9:04pm

Sun Apr 11, 8:04pm

Sun Apr 11, 7:04pm

Sun Apr 11, 6:05pm

Sun Apr 11, 5:05pm

Sun Apr 11, 4:04pm

Sun Apr 11, 3:05pm

Sun Apr 11, 2:05pm

Sun Apr 11, 1:05pm

Sun Apr 11, 12:04pm

Sun Apr 11, 11:05am

Sun Apr 11, 10:05am

Sun Apr 11, 9:04am

Sun Apr 11, 8:04am

Sun Apr 11, 7:04am

Sun Apr 11, 6:04am

Sun Apr 11, 5:04am

Sun Apr 11, 4:04am

Sun Apr 11, 3:04am

Sun Apr 11, 2:04am

Sun Apr 11, 1:05am

Sun Apr 11, 12:04am

Sat Apr 10, 11:05pm

Sat Apr 10, 10:04pm

Sat Apr 10, 9:04pm

Sat Apr 10, 8:04pm

Sat Apr 10, 7:05pm

Sat Apr 10, 6:04pm

Sat Apr 10, 5:04pm

Sat Apr 10, 4:04pm

Sat Apr 10, 3:04pm

Sat Apr 10, 2:05pm

Sat Apr 10, 1:04pm

Sat Apr 10, 12:04pm

Sat Apr 10, 11:04am

Sat Apr 10, 10:04am

Sat Apr 10, 9:04am

Sat Apr 10, 8:04am

Sat Apr 10, 7:04am

Sat Apr 10, 6:04am

Sat Apr 10, 5:04am

Sat Apr 10, 4:04am

Sat Apr 10, 3:04am

Sat Apr 10, 2:04am

Sat Apr 10, 12:04am

Fri Apr 9, 11:04pm

Fri Apr 9, 10:05pm

Fri Apr 9, 9:04pm

Fri Apr 9, 8:05pm

Fri Apr 9, 7:05pm

Fri Apr 9, 6:04pm

Fri Apr 9, 5:04pm

Fri Apr 9, 4:05pm

Fri Apr 9, 3:05pm

Fri Apr 9, 2:04pm

Fri Apr 9, 1:04pm

Fri Apr 9, 12:04pm

Fri Apr 9, 11:05am

Meta data:

ID: 5f1bf4ec-5745-4893-b770-fb5d788b7bf6
Link: https://api.weather.gov/products/5f1bf4ec-5745-4893-b770-fb5d788b7bf6